Location: Cheyres
(46.8153°N, 6.7877°E)
Time: 08:45:00
(UTC+00:00)

CAS-4B - Visible Passes

Search period start: 01 July 2022 00:00
Search period end: 11 July 2022 00:00
Orbit: 523 x 537 km, 43.0° (Epoch: 30 June)

Date Brightness Start Highest point End Pass type
(mag) Time Alt. Az. Time Alt. Az. Time Alt. Az.
01 Jul ? 01:10:31 16° SE 01:10:31 16° SE 01:12:39 10° ESE visible
01 Jul ? 02:45:43 10° SW 02:49:29 39° SSE 02:53:16 10° E visible
02 Jul ? 00:58:20 18° SE 00:58:20 18° SE 01:00:25 10° ESE visible
02 Jul ? 02:33:31 12° WSW 02:36:58 42° S 02:40:49 10° E visible
03 Jul ? 00:46:07 19° SE 00:46:07 19° SE 00:48:06 10° ESE visible
03 Jul ? 02:21:19 14° WSW 02:24:28 45° S 02:28:21 10° E visible
04 Jul ? 00:33:54 20° ESE 00:33:54 20° ESE 00:35:44 10° E visible
04 Jul ? 02:09:06 17° WSW 02:11:59 47° S 02:15:52 10° E visible
05 Jul ? 00:21:41 20° ESE 00:21:41 20° ESE 00:23:21 10° E visible
05 Jul ? 01:56:52 19° WSW 01:59:28 49° S 02:03:23 10° E visible
06 Jul ? 00:09:30 19° ESE 00:09:30 19° ESE 00:10:56 10° E visible
06 Jul ? 01:44:42 22° WSW 01:46:58 49° S 01:50:53 10° ESE visible
06 Jul ? 23:57:22 17° ESE 23:57:22 17° ESE 23:58:29 10° E visible
07 Jul ? 01:32:34 27° WSW 01:34:27 50° S 01:38:22 10° ESE visible
07 Jul ? 23:45:21 14° E 23:45:21 14° E 23:46:01 10° E visible
08 Jul ? 01:20:34 33° SW 01:21:56 49° S 01:25:51 10° ESE visible
08 Jul ? 02:58:01 10° W 03:01:32 29° SSW 03:05:03 10° SE visible
09 Jul ? 01:08:48 43° SW 01:09:25 48° S 01:13:18 10° ESE visible
09 Jul ? 02:45:35 10° W 02:48:58 26° SSW 02:52:21 10° SE visible
10 Jul ? 00:57:31 42° SSE 00:57:31 42° SSE 01:00:45 10° ESE visible
10 Jul ? 02:33:11 10° WSW 02:36:24 23° SSW 02:39:36 10° SSE visible
10 Jul ? 21:22:00 10° SSW 21:22:50 14° SSW 21:22:50 14° SSW visible
